Theta_e
332 331 331 331 328 326 321 320 301 309 304 299 299 300 298 304 306 304 304 306 304 305 305 306 306 305 305 305 307 308 307 305 307 300 303 317 326 327 328 334 332 333 336 339 343 346 347 346 349 351 351 350 350 350 350 350 349 349 349 349 349 349 349 348 348 348 348 348 348 348 347 347 347 346 346 345 346 345 346 346 345 346 347 347 346 346 346 344 344 343 342 341 339 337 337 335 335
329 330 330 330 326 320 312 312 304 301 302 298 299 300 301 304 303 303 302 304 305 305 306 306 306 308 306 306 308 308 308 309 311 313 319 321 322 325 327 332 332 330 336 339 343 345 346 349 346 350 351 350 350 350 350 350 349 349 349 349 348 349 348 348 348 348 348 348 347 347 347 346 346 345 344 343 343 343 342 343 344 345 346 346 345 345 344 343 342 341 340 339 337 335 334 333 332
329 328 329 329 324 319 316 312 298 300 296 294 298 300 303 302 302 303 304 305 306 304 305 306 307 305 306 306 304 306 305 312 311 312 313 321 321 327 327 331 332 334 337 340 343 345 346 346 343 349 350 350 350 350 350 349 349 349 349 349 348 348 348 348 348 347 347 347 347 346 346 345 344 343 342 341 341 340 340 341 341 342 343 344 343 342 341 341 341 339 337 336 334 333 333 332 330
330 327 327 320 313 318 309 307 302 298 295 297 296 302 302 301 302 304 305 306 306 303 305 306 304 308 306 304 306 308 308 310 313 315 314 319 322 329 329 330 332 333 337 341 343 345 346 344 343 349 350 350 350 350 349 349 349 348 348 348 348 348 348 347 347 347 346 346 346 346 345 344 343 342 340 340 338 338 337 341 339 339 339 341 342 340 339 339 338 337 336 335 333 332 331 330 329
330 325 327 321 316 308 307 304 302 301 295 299 295 301 302 303 303 304 306 306 306 304 304 306 306 307 309 307 308 305 308 314 313 315 319 323 323 327 329 332 331 331 335 339 343 344 345 343 343 347 350 350 350 349 349 348 348 348 348 348 348 348 347 347 346 346 346 346 345 345 343 342 341 340 339 338 337 336 337 337 337 336 337 338 339 338 337 337 336 335 334 333 332 331 329 329 328
327 325 325 324 309 313 308 300 300 298 301 301 298 301 303 305 303 305 306 307 306 305 306 306 306 305 305 308 310 309 314 308 317 315 320 323 323 327 331 332 330 331 334 338 343 343 345 341 342 346 350 350 350 349 349 348 348 348 348 348 347 347 347 347 346 345 345 344 344 343 342 341 341 339 338 336 334 334 335 336 336 336 336 336 336 336 335 335 334 333 333 332 331 328 327 327 327
323 320 318 316 313 313 302 300 299 300 301 303 301 302 304 305 305 305 305 306 303 305 304 305 305 306 304 308 307 311 314 317 314 322 322 322 323 328 331 330 331 331 334 338 342 342 345 340 343 347 349 349 349 349 349 348 348 348 347 347 347 347 346 345 345 345 344 343 343 342 341 340 339 338 336 334 333 333 334 335 336 335 335 335 334 334 334 334 333 333 332 330 329 327 326 325 325
322 318 316 306 306 305 300 301 300 302 301 302 305 304 305 305 306 305 305 303 304 304 304 305 304 303 306 303 305 316 309 312 321 317 317 317 325 330 331 331 331 331 334 338 340 342 340 337 342 347 348 349 349 349 348 348 348 347 346 346 346 345 344 344 344 343 343 342 342 341 340 339 338 337 335 333 332 332 333 335 335 334 334 333 333 333 333 332 332 331 330 329 327 325 324 324 323
318 315 312 310 301 304 300 299 300 304 303 304 304 306 308 307 306 305 304 306 305 305 304 305 305 302 305 305 305 314 311 314 314 315 316 317 323 330 329 331 330 332 334 337 339 342 345 336 340 345 347 348 348 348 348 347 347 346 345 345 345 344 344 343 343 343 342 341 340 340 339 338 337 336 333 332 331 331 332 332 332 332 333 333 333 332 331 330 330 329 328 327 326 325 323 323 321
313 313 305 305 305 298 299 299 297 301 302 304 303 304 305 305 304 304 304 304 305 305 305 304 305 304 306 304 308 311 314 312 313 315 317 317 323 328 329 332 333 334 334 335 337 340 343 336 335 342 344 347 347 346 346 346 345 344 344 344 343 343 343 343 342 341 341 341 339 339 338 338 335 333 332 332 331 331 331 331 331 331 332 333 332 331 331 330 330 329 327 325 324 324 323 322 321
306 310 311 303 300 298 298 298 300 302 301 302 303 306 306 306 304 303 304 305 305 304 303 303 302 303 305 306 308 317 312 311 312 314 318 317 323 327 328 332 334 335 333 335 337 338 340 341 331 336 339 342 344 345 345 344 345 344 343 342 342 342 341 341 342 341 340 338 336 335 335 334 333 333 332 331 331 331 331 331 331 331 331 331 331 331 330 329 329 328 327 325 323 322 321 320 319
305 306 306 301 298 298 299 298 300 301 303 304 304 306 305 304 303 303 304 302 305 304 305 304 305 307 303 305 309 313 311 310 315 317 316 318 320 327 329 331 334 334 335 334 336 337 339 341 340 332 333 336 338 340 342 342 343 343 342 342 342 341 342 341 341 339 338 337 335 334 334 333 333 332 331 331 330 331 331 331 331 330 330 329 330 330 329 329 328 327 325 323 322 321 320 319 318
309 308 304 299 299 299 301 297 300 300 302 303 303 303 303 304 303 305 305 305 304 304 306 307 307 306 304 306 314 311 309 314 312 314 316 316 321 326 330 330 331 333 333 334 335 335 338 339 340 340 336 329 330 334 335 337 339 340 341 341 340 339 339 338 338 337 336 336 333 335 334 333 333 331 330 331 330 330 330 330 329 329 329 330 330 329 328 328 326 324 324 323 321 320 319 318 317
309 310 305 300 299 299 298 299 301 299 300 304 305 302 303 304 306 306 305 303 305 304 306 308 307 307 305 307 309 311 312 311 311 314 314 318 322 325 328 328 330 330 332 332 333 335 335 337 339 340 340 337 339 333 330 332 335 336 337 337 336 336 337 337 337 336 335 335 334 333 332 331 331 331 330 330 330 329 329 329 328 328 328 329 328 328 327 326 325 324 323 321 320 319 318 317 315
310 308 305 303 300 298 301 298 300 299 299 304 303 302 301 305 305 304 305 303 305 308 305 306 308 305 303 305 306 311 313 312 311 314 317 318 322 324 326 327 329 330 330 331 332 334 334 335 336 338 338 339 338 338 339 336 329 331 333 334 333 334 335 334 334 334 332 332 331 330 329 328 328 328 329 329 329 328 328 327 328 328 328 328 327 327 326 325 324 322 321 321 319 318 317 315 314
313 310 306 301 299 298 300 299 299 298 300 304 301 300 300 305 304 304 305 306 307 306 304 305 305 306 308 307 310 310 307 309 312 315 317 319 321 323 324 324 326 327 329 330 330 332 334 334 335 336 337 337 338 338 337 337 329 327 330 332 332 332 332 331 331 331 327 325 325 325 324 327 325 326 322 326 326 327 326 324 326 328 327 326 325 325 324 324 323 322 321 320 318 317 315 313 312
312 312 301 301 297 298 301 299 299 297 303 304 302 301 302 303 303 304 302 304 303 306 303 307 305 308 306 309 310 307 307 310 312 315 317 317 319 319 321 323 324 325 325 327 329 331 332 333 334 335 335 335 336 337 337 337 336 326 327 326 326 328 329 328 329 325 320 319 321 320 320 328 327 328 328 327 320 327 319 320 325 326 325 324 323 323 323 323 322 322 320 319 317 316 313 311 309
311 304 301 299 300 299 302 300 302 302 300 303 303 303 303 301 303 303 303 302 303 305 305 307 307 307 309 311 307 308 309 310 312 314 316 317 318 319 319 321 322 322 324 325 327 328 329 331 333 334 335 334 335 335 336 336 336 330 334 334 333 330 326 324 328 331 323 331 322 325 327 326 326 327 325 322 325 325 322 318 321 324 323 322 321 321 322 322 321 320 319 317 315 312 308 308 306
306 303 301 298 302 302 304 304 305 302 302 304 304 301 302 303 303 305 302 303 304 303 305 307 306 307 309 309 309 306 308 310 311 313 315 316 317 318 319 321 321 322 323 324 325 326 328 329 331 332 333 334 334 334 334 334 334 332 333 333 332 328 329 329 330 329 330 329 329 328 325 327 326 326 325 324 324 318 322 317 319 322 322 321 320 320 319 319 318 316 315 312 310 305 305 305 304
308 303 299 301 305 304 302 304 303 304 305 304 303 303 300 303 302 304 301 302 304 302 303 305 306 307 308 309 309 308 307 309 311 312 313 315 317 318 319 321 321 321 323 324 325 325 326 327 329 330 331 332 332 332 332 332 332 332 332 332 331 331 331 330 330 330 329 328 327 326 325 324 324 323 316 314 316 322 321 316 317 318 319 319 317 317 317 316 315 312 310 307 303 305 304 302 302
307 303 300 303 305 303 304 303 304 305 302 302 302 302 300 304 303 302 302 300 302 304 306 305 305 307 308 310 310 310 307 308 309 311 311 313 316 317 318 320 321 322 324 325 325 324 324 326 327 328 330 331 331 330 330 330 331 331 331 330 330 329 329 329 329 329 328 328 327 326 324 322 322 322 321 321 320 320 321 321 320 319 319 318 315 317 316 314 312 308 303 302 303 304 303 302 303
305 302 305 305 302 301 305 305 304 303 300 300 301 299 302 302 300 300 302 299 301 304 307 309 309 309 308 308 309 310 307 308 308 308 310 311 313 314 316 319 321 322 323 322 323 324 324 324 326 327 327 328 329 329 329 329 329 330 329 328 329 328 329 328 327 327 326 326 325 324 321 320 320 319 320 319 319 320 320 319 318 318 318 317 316 316 314 311 307 303 302 302 301 303 302 303 302
300 304 305 306 306 303 306 304 301 301 301 301 301 304 303 302 302 304 302 302 305 309 309 309 309 310 310 308 308 307 308 308 308 309 310 311 312 313 314 315 317 318 320 320 323 323 324 324 324 325 324 325 326 329 329 329 328 329 329 328 326 325 326 326 325 324 324 323 323 321 319 318 318 317 318 318 318 319 319 318 317 316 316 314 313 310 308 305 302 301 301 302 301 301 302 302 301
302 300 304 303 306 304 307 305 298 301 301 302 304 304 302 303 300 305 301 304 307 308 309 309 310 310 308 305 306 306 308 309 310 309 311 311 313 314 315 314 315 317 319 319 321 322 323 323 323 324 324 324 325 326 326 327 327 327 327 325 325 324 324 324 325 323 322 319 319 319 318 317 316 315 316 316 316 316 316 316 315 313 312 311 309 307 305 302 301 301 302 302 301 301 301 301 300
301 301 304 304 302 304 305 305 303 302 302 304 303 301 302 304 304 304 302 305 306 307 308 308 308 308 307 306 305 306 307 308 308 310 312 312 313 314 316 316 315 316 315 317 319 320 322 322 323 322 323 322 323 324 324 325 325 325 325 324 324 322 324 324 324 322 319 317 316 316 316 315 315 314 314 314 315 314 314 313 312 311 310 308 306 303 303 301 301 301 300 300 300 300 299 300 299
303 302 304 303 302 304 304 302 301 301 302 303 300 301 303 304 303 300 303 305 307 308 308 308 308 307 306 306 306 306 306 307 309 309 310 312 312 310 311 313 313 312 314 316 317 319 320 321 321 322 322 322 323 322 323 324 323 323 323 322 323 322 322 323 323 320 319 316 313 313 314 315 313 312 312 312 312 312 311 311 310 309 307 305 303 302 301 301 300 300 300 300 300 300 299 299 298
300 301 300 300 301 301 302 300 302 302 301 302 299 300 301 303 300 298 305 306 307 306 306 307 305 305 305 305 306 306 306 307 307 309 309 310 310 309 309 311 311 312 313 314 315 317 319 320 321 322 323 322 323 321 322 323 323 322 322 321 322 321 321 321 320 320 318 315 313 312 313 313 312 312 311 311 310 310 309 309 308 307 305 303 302 302 302 302 301 300 300 299 299 299 299 298 298
299 298 300 300 301 302 301 300 300 300 299 300 300 299 301 301 298 298 303 305 304 303 304 305 305 305 305 306 305 307 306 307 308 308 307 307 309 309 309 309 310 311 312 312 314 316 317 318 319 321 322 322 321 321 321 321 321 321 321 321 321 321 321 320 319 318 315 314 313 311 311 311 310 310 310 309 308 308 307 306 306 305 304 302 301 301 300 301 301 302 302 301 301 300 298 298 299
299 298 296 298 300 298 301 300 301 300 298 298 300 297 295 298 296 301 304 306 304 302 302 304 304 305 306 307 306 305 306 307 307 306 307 308 310 311 310 312 312 312 312 313 314 315 315 317 317 319 321 321 320 320 320 320 321 321 320 320 320 320 320 319 318 316 315 314 312 310 310 310 309 309 308 308 307 306 305 305 304 303 303 301 301 302 301 301 300 299 299 299 299 299 298 298 299
298 298 296 296 297 297 301 302 297 296 298 298 299 290 296 298 301 303 305 304 302 300 301 303 304 305 306 306 305 305 306 306 306 307 308 309 309 310 310 312 312 312 313 313 313 312 314 315 317 318 319 320 320 321 320 320 321 320 320 320 320 319 319 318 317 316 314 313 311 310 309 308 307 307 307 307 306 305 304 303 303 302 302 301 301 301 299 298 298 298 297 297 297 297 297 297 296
296 296 295 294 293 294 300 298 295 295 298 298 299 291 295 299 302 304 305 301 300 300 301 302 303 304 304 305 306 305 305 307 307 307 310 310 310 310 310 311 311 312 311 312 311 312 312 313 315 315 317 319 319 319 319 320 320 320 319 319 319 318 318 317 316 315 312 311 310 309 308 307 306 306 306 305 305 304 302 301 301 301 301 301 299 299 298 298 298 298 296 296 296 297 297 297 298
297 293 292 296 292 295 299 300 297 295 296 297 297 292 294 298 301 304 303 300 298 299 300 301 302 303 303 304 304 305 305 307 307 308 308 307 308 308 309 309 310 310 310 311 311 312 311 312 313 314 316 317 318 318 319 319 319 320 319 315 318 318 317 316 316 314 312 310 308 308 307 306 305 305 305 305 303 303 301 300 300 301 301 299 299 299 299 298 298 298 297 298 295 296 297 296 297
296 293 292 294 295 295 295 299 300 299 297 296 296 293 296 297 301 302 302 299 299 300 301 302 302 303 303 303 304 304 305 306 307 308 309 309 309 308 307 307 309 310 310 310 310 311 310 310 310 312 313 315 317 317 318 319 318 318 317 317 317 316 316 315 315 314 312 310 307 306 306 305 304 304 304 304 303 302 301 300 299 301 300 299 299 298 298 298 298 298 297 298 297 295 296 296 296
294 296 292 295 292 294 292 298 301 298 297 295 295 293 295 297 300 301 302 302 301 300 300 301 302 303 303 304 304 304 304 305 305 307 307 308 308 309 307 307 308 310 310 310 310 310 309 309 310 310 312 314 315 316 317 317 317 317 317 316 315 314 315 314 314 312 311 310 307 305 305 304 303 303 303 303 302 302 301 300 300 300 299 299 299 298 297 298 298 297 295 296 297 297 295 295 295
294 294 293 293 293 292 292 292 296 296 296 294 295 294 294 296 299 300 301 302 301 300 300 301 302 302 303 304 304 304 304 305 305 307 308 308 308 309 309 309 309 309 309 309 309 309 310 309 309 309 310 311 313 315 316 316 316 316 315 314 313 312 313 313 312 310 310 309 307 306 304 303 302 303 302 302 301 301 300 300 299 299 299 299 298 297 298 297 297 296 296 294 296 297 296 296 296
295 294 293 292 290 292 292 296 299 297 294 293 294 293 295 297 298 300 301 302 300 300 301 301 302 302 303 303 304 304 305 305 308 308 309 309 309 309 309 310 309 310 308 308 308 309 309 309 308 308 308 309 311 313 314 313 313 312 311 311 310 310 311 310 310 309 309 308 307 305 304 303 302 302 302 301 301 300 299 299 298 299 298 298 298 297 296 296 296 296 296 295 294 294 296 297 296
293 293 292 292 292 293 296 296 298 298 293 293 294 295 295 296 297 299 300 301 301 300 300 301 301 302 303 304 304 306 305 305 309 309 310 310 310 310 310 310 309 308 307 307 306 307 308 307 307 306 307 308 308 309 310 311 310 310 310 309 308 309 309 309 308 308 308 307 306 305 304 302 302 302 301 301 300 299 299 299 298 298 298 298 297 297 298 297 297 296 296 295 294 293 293 295 296
294 293 293 292 293 291 295 296 298 298 292 292 294 293 294 295 297 298 300 300 299 300 300 300 301 302 303 304 305 304 304 307 308 308 309 310 310 311 310 309 307 306 306 305 305 306 307 307 307 307 307 306 306 307 309 310 311 310 309 309 309 309 307 306 306 307 307 306 305 304 304 303 302 301 300 301 300 300 299 298 297 297 297 297 298 299 298 297 296 295 296 293 295 293 292 294 295
294 292 293 292 292 295 296 296 297 295 292 292 295 292 293 295 297 299 299 299 300 301 301 301 302 302 304 304 303 303 303 304 305 306 309 308 309 309 308 308 308 307 306 306 306 306 307 306 307 307 306 305 306 306 307 308 310 310 309 309 308 308 308 308 308 307 306 305 304 303 303 303 302 301 301 300 300 299 299 298 297 296 297 297 297 297 297 296 295 295 294 293 292 294 294 294 294
292 293 291 289 294 292 290 294 292 292 292 291 293 290 293 296 298 299 300 300 301 302 302 303 303 303 303 302 302 302 302 303 305 305 304 305 306 306 306 305 305 306 306 305 305 305 305 306 306 306 306 305 305 305 306 308 309 309 309 308 306 307 305 305 305 304 303 303 302 302 302 302 302 301 301 300 300 299 299 298 297 296 296 297 297 296 296 295 295 294 294 294 293 291 293 291 294
295 294 293 292 293 294 293 293 294 295 296 294 293 294 296 298 296 298 298 298 299 301 302 302 303 304 304 304 305 303 302 303 304 303 304 303 303 304 305 305 306 305 305 305 305 305 304 305 306 306 306 305 305 305 305 306 306 306 306 305 305 304 303 302 302 302 302 302 301 301 300 301 301 301 301 300 299 299 299 298 297 296 296 297 297 296 296 295 295 295 294 294 293 291 290 291 291
294 296 294 294 295 294 294 295 293 291 291 292 293 288 291 295 297 297 301 300 300 302 302 303 301 302 303 302 302 303 304 305 304 302 302 303 302 303 303 303 303 303 302 302 303 304 304 304 305 306 306 305 304 305 304 304 304 303 303 302 301 300 300 300 299 300 301 300 300 301 301 300 300 300 300 300 299 298 299 298 298 297 296 296 296 296 296 296 295 294 294 294 294 294 293 292 290
291 293 297 295 294 294 294 292 291 287 287 291 293 286 285 294 294 297 299 299 299 302 303 303 302 302 302 302 302 302 302 302 302 303 302 301 301 301 302 302 302 301 301 302 303 303 303 304 304 305 305 305 305 304 304 303 303 303 303 302 302 301 300 301 302 302 301 301 301 300 299 300 300 299 300 299 299 298 298 298 298 297 296 296 296 296 295 295 295 295 295 294 294 294 295 292 291
290 295 293 296 294 293 292 291 290 289 292 293 290 292 287 288 294 297 298 298 299 300 302 302 302 301 301 300 301 301 301 300 301 301 300 300 300 300 300 301 301 300 300 301 302 302 302 303 303 304 304 304 304 304 303 303 302 302 302 302 301 301 301 301 301 300 301 300 299 299 299 298 299 299 299 299 299 298 298 298 298 297 296 296 295 295 295 296 296 296 295 294 295 294 296 293 293
293 292 292 293 293 292 291 291 290 290 287 286 289 292 287 289 294 293 296 295 297 299 300 300 300 300 300 300 301 300 300 300 299 299 299 299 299 299 300 300 301 301 301 300 300 301 302 303 303 303 303 303 303 303 302 302 302 302 302 302 301 301 302 302 302 301 300 300 298 298 298 298 298 298 298 298 298 298 297 297 297 297 296 295 295 295 295 296 295 295 294 293 293 293 294 295 295
293 292 293 292 293 292 291 291 290 289 287 284 288 291 287 288 297 294 293 294 297 299 299 299 298 299 300 300 299 299 299 300 300 299 299 299 299 299 300 300 299 299 300 300 300 300 301 301 301 301 302 302 302 302 302 302 302 301 301 301 301 301 301 301 301 300 300 300 298 298 297 297 297 297 297 298 298 298 297 297 297 296 296 295 294 294 295 296 295 295 294 293 294 293 294 294 295
293 295 294 293 292 292 290 290 289 287 284 287 290 291 291 285 294 295 294 297 297 299 299 299 300 300 300 299 298 298 298 298 298 298 298 298 299 298 298 297 297 298 298 298 298 299 299 300 299 300 300 300 301 301 301 301 301 301 301 301 301 300 301 301 300 299 299 299 297 297 297 297 297 296 296 297 297 297 297 297 296 296 296 295 294 294 294 295 295 295 294 294 293 293 292 293 295
294 292 291 291 290 289 289 287 288 284 284 289 291 291 292 284 291 295 297 296 295 296 297 297 299 298 299 297 297 297 297 297 297 297 296 297 297 297 297 296 296 296 296 296 297 297 298 298 298 298 299 299 299 300 300 300 301 301 301 301 301 301 300 300 300 299 299 298 298 297 297 297 296 296 296 296 296 296 296 296 296 296 295 295 294 294 294 294 294 294 294 293 293 293 293 293 293
292 291 290 286 285 287 284 285 281 283 285 286 286 290 286 287 293 296 298 299 300 298 298 298 298 298 298 296 296 296 295 295 294 294 294 294 294 294 294 295 295 295 295 295 295 296 296 297 297 297 297 297 298 298 299 299 300 300 300 300 300 300 300 300 300 299 300 298 298 297 297 296 296 295 295 295 295 296 296 295 295 294 294 294 294 294 294 294 294 293 293 293 293 293 292 292 291
290 289 287 285 282 282 280 284 284 283 287 286 287 290 285 292 295 299 298 300 299 296 296 297 297 296 295 295 295 294 294 293 293 292 292 292 292 293 293 294 294 294 294 294 295 295 296 296 296 295 295 296 297 297 297 298 298 299 300 300 300 300 299 300 299 299 299 299 299 297 297 297 296 295 295 295 295 296 295 295 295 295 295 295 294 294 294 294 294 293 293 292 292 293 292 293 292
291 294 292 289 288 284 280 283 281 283 287 284 287 285 284 286 292 295 298 298 297 296 296 296 296 296 295 294 294 293 292 292 292 291 291 291 291 292 292 293 293 293 293 293 294 294 295 295 295 295 295 295 296 296 296 296 297 298 298 299 299 299 299 299 299 300 299 299 298 298 297 297 297 297 296 296 296 296 295 295 295 295 294 294 294 294 294 294 293 293 292 292 292 292 292 292 292
292 293 293 288 287 291 284 287 286 286 286 285 283 285 291 292 298 298 298 296 294 295 295 295 294 294 294 292 291 290 290 290 290 290 290 290 291 291 291 291 292 292 293 293 292 293 293 294 294 294 294 294 294 294 295 296 296 296 297 297 298 298 298 298 298 299 299 299 298 298 297 297 297 297 297 296 296 295 295 294 294 294 294 294 294 293 293 292 292 291 291 291 291 293 291 292 291
290 289 286 290 295 292 287 287 287 285 284 281 290 288 291 296 297 299 295 293 292 292 292 292 291 292 291 289 289 289 289 289 289 289 289 289 290 290 290 291 291 291 292 292 292 293 293 293 293 293 293 294 294 294 294 295 295 295 296 296 297 297 297 297 297 298 298 298 298 298 297 297 297 297 297 297 296 295 295 294 294 294 294 293 293 293 292 292 292 291 290 290 290 291 290 291 291
290 286 291 293 295 293 288 281 285 283 280 282 288 284 287 288 285 294 293 291 291 290 289 289 289 289 288 288 288 288 288 288 289 289 289 289 289 289 289 290 290 291 291 291 291 292 292 293 292 292 292 292 293 293 293 293 293 294 295 295 296 296 296 296 297 297 298 298 298 297 297 296 296 297 296 297 296 295 295 293 293 293 293 293 292 292 292 291 291 290 290 290 290 291 290 290 290
292 291 295 289 285 284 288 284 276 278 278 280 285 287 287 289 290 295 294 291 290 288 288 287 286 287 287 287 287 287 288 287 287 287 287 287 287 287 288 289 289 290 291 291 291 291 292 292 292 293 292 292 292 293 293 293 293 293 294 294 295 295 295 296 296 296 297 296 296 297 296 296 296 297 295 295 295 294 294 293 293 292 292 292 292 291 291 291 290 290 289 289 289 290 289 288 289
293 293 291 293 289 286 285 286 285 285 279 280 280 285 283 292 293 295 292 289 289 288 286 285 285 285 286 286 286 286 286 286 286 286 286 287 287 286 287 287 287 288 289 290 290 291 290 291 291 292 292 293 293 292 292 292 292 292 292 293 293 294 294 294 295 295 295 295 295 296 296 295 295 295 295 295 294 293 293 293 292 292 292 292 291 291 290 290 290 289 289 288 288 288 287 287 288
288 288 287 289 287 290 289 287 285 283 281 280 280 279 284 292 293 291 288 287 288 287 285 285 285 285 285 285 284 284 285 285 285 285 285 285 286 286 286 286 287 288 289 290 290 289 289 290 290 291 291 291 291 292 292 292 292 292 291 291 291 292 292 293 293 294 293 294 294 295 295 295 295 294 294 293 293 293 293 293 292 292 291 291 291 290 290 289 289 288 288 288 288 287 287 287 287
291 290 288 290 286 284 281 280 290 285 283 279 280 278 286 289 291 288 286 287 287 287 286 285 284 284 284 284 284 284 284 284 284 284 285 285 285 285 286 286 287 287 287 288 289 289 288 288 289 289 290 290 290 291 291 291 292 292 292 291 291 291 291 291 291 292 292 292 292 293 294 294 293 293 294 293 293 293 293 292 292 291 291 291 290 290 289 289 288 287 287 287 287 286 286 286 286
Wind_Speed
3 2 2 2 2 2 3 1 6 3 2 3 4 2 2 1 3 5 3 2 3 4 1 2 3 6 6 2 6 7 4 6 4 7 4 2 1 1 4 5 1 3 13 10 10 11 13 11 10 12 14 14 14 14 14 13 13 13 12 12 11 11 11 11 11 11 11 11 11 11 11 11 11 10 9 9 8 8 9 9 8 9 9 10 10 11 11 10 11 11 11 10 10 10 10 9 9
2 2 1 2 1 2 2 2 4 4 3 6 2 0 1 2 2 5 3 4 4 3 1 3 4 4 4 4 4 5 10 14 6 4 2 1 2 4 7 7 4 7 10 10 10 11 14 15 10 11 14 15 15 14 14 14 13 13 13 12 12 11 11 11 11 11 11 11 13 12 12 11 10 9 8 8 8 7 6 8 7 8 10 9 9 8 10 11 11 10 10 10 10 10 9 9 8
1 3 2 2 1 2 2 2 5 2 5 6 2 1 3 3 4 2 2 3 4 1 1 2 2 5 7 4 7 7 4 1 3 3 5 4 3 4 10 10 5 5 10 9 10 11 12 14 10 11 15 15 15 15 14 14 13 12 12 12 12 11 11 11 12 12 11 12 12 12 11 11 9 8 7 6 6 6 6 6 6 5 6 7 7 6 6 9 10 10 9 10 10 9 9 8 8
1 3 2 1 2 1 3 2 5 5 6 3 5 4 3 3 3 4 2 3 3 1 3 4 5 3 6 10 6 3 11 8 4 4 3 2 1 3 9 11 6 6 8 7 10 11 12 13 11 11 15 15 15 14 13 13 13 12 12 12 11 11 11 11 12 12 12 12 12 11 10 9 9 7 6 5 3 4 1 8 5 4 3 5 7 6 6 8 9 10 10 10 10 9 9 8 8
2 1 2 2 3 2 2 1 3 2 5 1 5 1 3 3 6 5 4 1 5 4 5 2 4 4 3 6 3 4 2 1 4 4 2 1 2 1 8 9 7 7 9 10 10 12 12 11 11 11 13 16 16 16 15 14 13 13 11 11 11 11 11 11 12 12 12 12 11 10 8 8 7 7 6 5 5 4 4 5 3 4 5 2 3 5 6 7 8 9 9 9 9 9 9 8 8
1 0 2 2 2 3 2 3 5 6 5 2 6 5 5 1 6 6 8 6 4 3 4 6 5 1 3 5 4 5 0 6 4 3 3 2 2 1 10 8 7 8 10 11 10 11 12 9 9 11 13 16 16 16 16 15 15 14 12 13 13 12 12 11 11 12 12 10 9 8 8 8 7 7 6 5 4 5 4 4 5 5 5 5 5 6 7 7 8 9 9 9 9 9 9 9 9
1 3 2 3 3 2 4 5 6 5 3 1 7 8 8 5 4 6 9 6 4 2 2 4 1 4 7 2 3 9 1 2 3 2 1 3 1 4 10 8 7 10 11 10 10 11 12 10 10 12 12 14 16 16 15 15 15 15 14 14 13 13 13 12 12 11 10 9 9 8 9 8 8 7 6 4 5 5 6 6 6 5 5 5 5 6 7 8 9 9 9 9 9 9 9 9 9
2 4 2 4 2 2 4 4 6 4 1 3 3 8 10 8 3 6 9 3 0 2 6 4 3 1 4 1 5 3 1 4 0 2 1 1 2 6 10 7 9 11 11 10 11 11 7 8 9 12 12 13 14 14 16 16 16 16 15 14 13 14 13 12 10 11 9 10 9 10 10 10 8 7 7 5 6 6 7 7 7 7 7 6 7 7 8 8 9 9 10 10 10 10 10 9 9
3 0 0 2 3 1 3 5 5 1 6 4 9 10 12 10 7 8 9 4 5 6 4 6 7 4 2 0 6 3 1 2 2 0 2 1 4 8 7 9 9 10 12 10 12 11 11 8 8 10 11 13 13 15 17 16 15 15 14 13 14 13 12 14 12 11 11 10 11 11 10 7 8 10 7 7 7 8 8 8 8 8 8 8 9 9 9 9 9 9 10 10 10 10 10 10 9
2 3 3 1 1 5 3 5 4 0 3 1 7 9 8 5 5 4 7 7 4 1 1 3 4 11 3 8 8 5 1 1 1 3 4 3 5 8 9 9 9 10 11 11 13 11 10 7 7 9 10 12 14 17 17 15 14 13 14 12 12 13 13 10 10 10 11 13 11 12 11 13 13 9 8 9 8 8 9 8 8 8 9 9 9 10 9 10 10 10 10 10 10 10 10 10 10
2 2 2 4 3 4 5 4 4 3 3 3 8 11 10 6 4 4 5 5 2 4 2 3 5 12 6 7 7 3 2 2 3 4 6 5 5 9 9 8 8 11 11 13 12 6 6 8 7 7 8 10 11 13 13 13 13 14 14 12 11 10 9 9 9 11 12 8 8 10 10 9 8 9 10 10 9 8 8 9 9 9 9 9 9 10 10 10 10 10 11 10 10 10 10 10 10
3 2 2 3 4 4 4 5 7 7 7 5 4 2 2 2 3 3 4 4 1 5 6 9 1 3 5 5 4 2 2 4 5 2 3 4 6 8 7 7 7 10 11 13 11 8 8 8 8 7 8 8 9 11 11 12 12 12 11 10 10 10 10 12 11 8 9 7 9 11 11 11 10 10 11 11 10 10 10 10 10 10 10 10 10 10 10 10 10 10 10 10 10 10 10 10 11
3 1 3 4 1 3 1 4 5 5 8 2 0 4 2 5 5 3 3 5 4 5 5 14 2 2 6 4 1 1 6 4 1 1 3 5 5 6 6 6 7 9 10 13 13 9 8 9 9 9 9 7 5 10 10 9 11 10 11 11 11 11 9 8 8 7 8 8 12 10 10 9 8 11 12 11 11 11 11 11 11 10 10 10 10 10 10 10 10 10 10 10 10 10 10 10 11
3 1 1 3 2 2 4 5 4 5 5 2 1 3 3 3 3 3 2 5 3 5 3 1 5 2 10 5 7 5 2 4 3 2 2 3 3 5 7 6 8 9 12 14 15 10 9 9 11 10 10 9 9 7 9 10 10 10 10 11 11 9 8 8 9 9 9 9 10 9 8 7 8 11 12 12 12 12 11 11 11 11 11 11 11 11 11 11 10 10 10 10 10 10 10 10 10
1 0 1 1 1 1 2 4 2 2 6 1 2 3 4 6 3 2 5 6 7 2 3 2 3 4 3 6 3 1 4 4 3 3 3 3 3 4 6 5 8 8 11 13 14 13 12 10 10 9 9 10 11 10 10 9 10 9 10 10 10 9 8 9 9 9 9 9 8 8 7 8 8 9 10 10 11 9 9 9 10 12 12 11 11 11 11 11 11 10 10 10 10 10 11 10 11
1 3 1 3 3 2 2 5 2 4 5 2 3 1 2 4 3 3 3 4 6 1 1 5 5 6 4 7 8 4 4 3 3 4 4 5 4 3 5 6 7 8 8 10 11 10 11 11 10 9 10 10 10 10 13 12 9 9 9 9 9 9 9 9 9 9 8 8 8 9 9 9 8 9 8 9 10 9 9 10 9 12 12 12 11 11 11 11 11 11 11 11 11 11 11 11 10
1 3 3 3 8 4 2 3 4 4 3 2 4 4 5 4 4 4 1 2 7 9 5 6 9 6 10 9 4 4 4 4 4 6 5 5 5 5 5 6 7 7 6 10 11 11 11 12 13 10 11 12 10 10 9 9 8 9 8 9 9 9 9 9 9 9 8 8 9 9 9 11 11 10 9 10 8 9 9 8 9 12 12 12 12 11 12 12 11 11 11 11 11 12 11 12 11
3 4 4 6 7 6 4 7 7 2 5 6 4 5 6 10 3 2 1 7 9 12 13 9 8 11 12 2 3 4 4 5 6 7 7 6 6 6 7 8 9 10 10 10 12 12 11 12 13 14 13 12 11 8 6 6 6 9 12 10 9 8 8 8 8 10 10 9 9 9 10 11 9 9 10 11 10 9 8 8 9 10 12 12 12 12 12 12 12 11 11 11 11 11 9 5 6
5 2 4 9 3 3 4 6 7 5 9 7 5 3 4 10 4 2 6 9 7 11 15 13 13 15 16 11 6 4 5 5 7 8 9 10 9 10 9 8 10 9 10 11 11 14 12 11 12 14 14 12 12 10 6 7 9 10 11 11 9 10 10 10 11 11 10 13 11 12 11 9 9 8 9 9 8 10 10 8 9 9 11 11 11 12 12 12 12 11 11 10 10 8 4 3 4
3 4 8 9 8 4 5 4 8 9 11 13 11 3 4 3 2 1 7 13 9 13 14 14 13 14 12 13 10 9 7 8 8 10 11 12 11 11 10 10 10 12 13 12 12 11 12 12 13 13 13 12 11 9 8 9 10 10 10 11 12 11 12 9 13 11 11 13 13 12 10 9 8 8 6 7 6 9 7 8 9 9 9 9 10 10 11 11 12 11 11 11 7 4 3 3 4
3 5 8 7 1 7 8 12 11 8 2 10 8 3 7 7 6 5 6 8 13 15 16 17 19 17 13 6 7 7 8 9 10 11 12 13 13 10 11 11 11 11 10 8 8 10 14 13 11 13 12 11 12 10 10 10 10 11 12 11 11 11 12 13 12 9 10 14 13 10 9 7 8 7 8 8 9 8 9 9 8 8 8 9 10 8 8 8 7 6 6 5 4 4 4 3 3
2 9 9 11 2 7 7 8 3 3 1 6 8 8 10 3 5 10 11 12 12 12 12 10 14 14 13 13 8 5 7 10 12 12 14 15 15 15 12 10 9 6 6 8 11 11 13 14 13 11 12 13 13 11 11 11 10 10 11 13 12 12 12 13 11 9 9 9 9 10 7 8 9 7 9 9 9 9 9 9 9 8 8 8 8 6 6 6 5 5 6 5 4 3 3 3 3
8 10 12 12 9 11 1 1 2 3 5 5 8 6 6 8 12 12 14 17 17 17 18 20 18 16 12 6 4 6 8 11 12 14 14 14 15 16 14 11 10 10 8 10 10 11 12 14 14 12 13 13 17 14 10 10 11 11 10 10 13 13 13 12 10 9 9 10 10 8 9 9 9 8 9 9 9 8 9 8 8 7 8 7 7 5 5 5 5 5 5 4 4 4 4 3 3
7 11 1 7 5 12 10 5 5 4 5 10 5 7 13 12 16 3 12 15 19 21 20 21 20 17 5 11 12 14 13 12 14 15 14 15 15 17 14 13 11 8 8 11 11 11 11 16 16 15 14 13 13 16 15 12 12 12 11 11 13 13 12 10 12 10 9 9 10 9 10 9 10 9 9 9 9 8 9 8 7 7 7 6 6 5 6 5 5 5 5 5 5 4 4 4 3
9 11 9 9 2 11 10 7 4 7 10 11 5 11 20 14 14 14 22 12 18 20 20 21 19 16 13 13 16 15 15 13 14 15 10 10 12 12 10 9 9 9 12 13 10 11 14 14 17 18 16 16 14 15 16 13 13 15 12 14 15 14 13 14 14 10 9 9 10 10 10 10 10 9 10 10 9 9 8 7 7 7 6 6 6 5 6 6 5 5 5 5 5 5 4 4 3
12 16 8 7 8 10 9 7 8 9 7 6 5 16 18 14 6 20 27 19 17 18 20 20 16 14 15 15 15 14 14 15 14 14 14 10 9 10 15 13 11 13 16 12 12 13 12 15 17 19 18 17 15 15 14 14 15 15 14 15 15 12 12 13 12 9 10 9 10 10 11 10 10 10 10 9 9 9 8 7 7 7 7 6 6 6 6 5 6 5 5 5 5 5 5 4 4
1 3 6 10 12 11 6 9 11 7 10 7 10 15 17 3 2 15 9 4 6 11 14 14 10 13 14 11 11 12 13 14 15 12 9 10 10 12 15 12 14 18 13 14 13 12 11 14 16 18 18 16 15 15 15 15 14 14 14 16 15 15 12 11 10 10 10 9 10 11 11 11 10 10 10 10 9 8 8 8 8 6 6 6 6 6 5 5 5 5 6 6 5 5 5 4 4
2 4 8 13 13 12 10 10 16 5 10 9 12 15 15 8 3 18 18 2 3 5 12 14 13 13 13 12 11 10 9 12 10 8 14 14 11 12 13 12 15 15 13 15 13 10 11 15 16 18 18 16 16 17 15 15 15 15 15 13 14 14 13 11 11 11 10 10 10 10 11 11 10 10 10 9 10 9 9 9 8 7 7 6 6 5 6 5 5 4 5 4 4 4 4 4 3
2 3 8 12 13 14 16 13 13 9 8 5 7 7 11 9 12 21 18 14 5 8 13 15 15 14 13 11 9 8 10 11 9 10 15 14 12 9 13 12 12 11 11 13 12 11 14 14 15 17 17 17 19 18 16 15 14 14 15 15 13 13 13 12 12 11 11 10 10 11 11 12 10 10 10 10 10 9 8 9 8 8 7 7 6 6 6 5 5 5 4 4 4 4 4 4 2
2 5 4 12 12 12 11 5 2 3 3 7 8 9 4 13 18 18 14 5 2 7 13 14 13 12 11 9 7 9 10 10 11 13 13 12 11 10 12 11 11 11 8 8 11 13 12 9 10 11 16 18 19 16 15 14 15 14 13 13 13 13 12 12 12 11 11 10 10 12 11 12 11 10 10 10 9 9 8 9 9 8 7 7 6 7 6 6 6 6 6 5 5 5 5 4 4
7 1 1 9 9 9 2 2 5 4 5 11 6 10 9 9 14 14 4 1 4 11 13 15 14 14 14 10 8 10 14 12 15 15 13 13 9 6 10 11 10 11 9 9 13 15 15 12 10 10 14 17 16 17 17 15 14 13 13 13 13 13 13 13 12 11 11 11 10 10 12 12 12 11 10 10 10 9 9 9 9 8 7 8 7 7 7 6 6 7 7 7 6 5 5 5 4
3 5 7 4 7 7 8 3 7 12 2 6 7 10 10 9 12 11 2 3 1 8 13 16 17 16 17 15 16 15 16 16 15 16 17 13 7 9 10 13 12 12 13 13 12 11 14 15 13 14 14 18 17 18 16 14 14 13 12 12 11 13 11 12 12 12 11 11 10 10 13 12 12 12 11 10 10 9 9 9 9 8 9 8 7 7 7 7 7 6 6 6 7 6 6 5 4
4 8 11 11 7 9 9 9 4 5 4 6 11 13 11 9 7 9 1 3 5 12 19 21 23 22 19 15 13 13 15 17 14 14 10 7 8 9 10 13 13 14 14 13 13 12 14 15 14 17 16 19 18 18 16 14 12 12 12 11 11 11 11 11 11 10 10 11 10 11 12 12 12 12 12 11 10 10 9 9 9 9 9 8 8 8 7 7 7 6 6 6 6 6 6 6 4
9 6 10 5 10 10 10 9 11 5 8 7 11 11 13 16 16 17 18 18 18 17 21 23 21 18 18 14 13 14 15 14 15 12 10 8 9 9 10 12 13 13 13 14 14 13 14 14 13 15 14 15 14 14 15 14 12 10 9 8 9 10 12 10 10 10 11 11 10 11 11 12 12 13 12 11 10 9 9 9 8 10 9 8 8 8 8 7 7 7 8 6 5 6 6 7 6
9 5 7 8 8 10 14 9 1 4 7 9 8 15 17 18 18 18 19 19 18 19 20 20 20 20 17 15 14 15 15 13 9 8 9 10 10 11 10 10 10 11 9 12 12 12 10 10 10 12 13 13 13 13 12 11 10 9 8 8 8 10 9 9 9 10 11 10 11 11 12 12 12 13 13 12 11 10 9 9 8 10 9 8 8 8 7 7 7 7 8 7 4 4 5 6 5
11 7 10 10 12 12 9 13 12 9 14 14 14 17 16 16 16 16 16 15 16 21 21 20 17 16 16 16 14 12 9 9 5 8 8 10 9 9 9 7 7 7 7 7 10 10 10 9 9 9 12 12 11 10 10 10 10 10 10 9 9 11 10 10 10 10 10 11 11 12 12 13 13 12 13 13 12 11 11 10 10 10 10 9 9 10 9 9 10 10 8 9 8 3 1 4 6
3 4 7 13 14 15 15 18 16 6 9 12 14 17 17 15 15 18 19 19 19 22 21 16 17 18 18 15 13 8 7 7 8 8 11 9 10 8 8 7 6 5 6 7 8 9 11 12 10 12 11 12 11 11 11 11 12 11 11 12 13 11 11 11 11 12 12 11 12 13 13 13 13 14 14 14 14 12 11 10 10 10 10 10 10 10 10 10 9 9 8 7 9 8 5 4 6
11 12 12 14 9 16 12 15 12 4 4 8 8 15 16 16 18 20 21 19 22 19 15 18 20 19 18 13 7 9 7 5 7 8 9 8 7 9 8 5 5 7 5 5 7 8 9 10 11 10 7 11 12 12 11 12 12 11 12 12 11 10 12 12 14 13 12 11 12 13 12 13 13 14 13 14 13 13 12 11 11 11 11 10 9 8 9 9 10 9 8 7 6 9 7 8 8
10 10 10 10 10 14 14 14 10 2 2 11 9 16 14 18 21 24 20 18 15 15 15 17 17 20 9 10 9 8 7 6 6 6 9 11 12 11 8 7 6 6 7 6 5 6 7 8 9 8 8 10 11 12 11 11 11 10 11 8 9 9 8 8 8 8 9 10 11 12 12 12 13 12 12 13 12 12 12 11 11 11 12 10 10 9 10 11 10 11 12 10 9 6 5 6 9
9 9 7 11 8 8 8 5 2 3 0 12 14 18 15 20 19 17 14 9 13 12 16 21 20 12 9 9 8 7 5 4 5 7 10 12 12 12 12 11 11 8 7 6 4 5 5 7 8 9 9 10 9 11 10 9 8 8 8 5 6 8 6 7 7 5 7 9 11 11 11 12 13 12 13 12 10 11 12 12 11 11 12 12 12 12 12 12 11 11 11 10 10 9 7 8 9
9 11 9 11 14 12 10 9 5 10 12 4 12 13 10 3 6 2 2 2 6 12 17 18 7 3 6 3 5 5 3 4 7 11 11 12 13 14 13 13 11 11 10 10 8 6 4 6 7 8 8 9 9 9 10 9 6 6 6 4 1 5 3 5 7 11 11 10 9 11 13 11 12 12 12 13 12 13 12 12 12 12 12 12 11 11 11 13 13 12 13 11 13 12 11 8 9
9 8 13 17 15 15 14 13 9 7 7 4 10 13 3 4 2 1 2 3 7 14 17 5 3 2 4 5 4 1 1 4 10 12 10 11 13 14 17 16 16 14 13 12 10 9 7 6 5 6 7 7 8 9 9 9 9 9 9 9 10 9 10 11 12 13 10 11 12 8 9 12 11 11 11 12 12 12 12 12 12 11 11 10 11 10 10 10 11 12 13 13 14 13 10 9 9
8 6 9 13 14 13 11 11 6 7 5 3 5 4 13 5 11 8 9 8 14 17 11 6 5 5 6 5 2 3 7 11 12 10 12 14 15 16 17 16 15 14 13 11 10 10 10 7 6 5 6 5 5 7 9 9 9 9 11 11 11 11 11 10 8 6 7 7 7 9 8 9 11 12 11 11 12 12 12 12 12 12 11 11 10 10 11 12 11 12 11 12 12 12 11 11 12
9 3 0 3 5 6 5 3 5 10 4 6 6 8 9 14 4 5 7 10 14 14 6 4 7 5 9 7 2 8 10 9 6 8 11 14 15 16 15 15 14 13 11 11 10 10 10 10 8 6 4 4 3 5 8 9 9 9 10 11 10 11 11 8 6 7 5 6 8 9 8 9 11 12 11 12 13 13 12 12 12 12 11 11 10 11 11 11 10 9 12 13 10 12 12 12 12
1 3 2 2 2 2 1 3 6 4 7 7 5 3 5 9 2 2 4 6 10 11 6 7 12 10 9 6 9 14 12 10 8 9 13 14 15 15 14 14 14 13 14 14 12 11 10 9 8 6 5 4 3 5 6 8 9 9 9 9 10 9 9 8 4 6 7 7 8 8 9 9 9 11 12 12 13 14 13 13 13 13 12 12 10 11 10 11 13 14 13 12 12 11 12 11 10
2 4 5 4 4 4 2 3 4 5 4 11 7 9 6 16 4 6 2 4 7 3 6 9 12 11 6 9 13 13 12 10 10 12 13 14 15 15 13 12 15 14 12 13 13 12 12 10 10 9 7 5 3 3 6 8 9 8 8 10 11 10 9 8 8 6 7 7 9 10 9 9 9 10 12 13 12 14 14 13 13 15 14 12 11 13 11 11 12 12 14 14 13 13 11 11 12
4 3 1 1 1 1 1 0 3 3 8 10 12 13 7 11 2 5 7 1 2 2 6 6 9 8 11 12 13 12 11 11 12 13 14 15 15 15 14 15 13 14 13 14 14 14 13 13 12 12 9 6 5 4 4 7 7 9 10 10 11 11 10 9 8 8 7 7 9 9 9 9 9 10 11 12 13 13 13 13 12 13 12 11 12 13 13 13 12 12 12 13 13 15 12 12 11
1 1 2 4 4 2 3 0 2 3 10 3 8 12 12 8 3 2 2 1 2 4 5 6 6 13 11 11 11 12 12 11 11 12 14 16 17 17 16 17 16 15 16 18 16 14 14 13 13 14 13 11 7 5 5 6 6 8 9 10 10 11 11 9 10 10 8 8 8 8 8 8 9 9 9 10 11 13 11 11 12 12 12 12 13 12 12 12 11 11 11 12 13 14 12 11 12
4 3 2 3 4 2 4 4 3 6 9 2 4 5 3 16 13 5 6 8 7 2 3 8 8 8 12 11 12 11 11 12 12 14 14 15 14 14 14 14 14 17 17 18 17 15 14 14 16 15 14 13 10 7 6 6 6 7 8 9 10 9 9 11 10 10 9 8 8 8 8 9 8 9 10 11 12 14 12 12 12 13 13 12 12 12 11 12 11 11 12 13 13 14 14 14 12
7 7 5 3 5 4 7 4 2 5 1 4 1 4 10 14 12 10 16 12 7 11 8 6 8 11 13 10 10 12 13 13 13 14 14 14 14 13 12 12 13 14 17 16 15 15 13 13 15 15 15 13 11 9 8 7 7 8 8 8 8 8 9 9 10 9 9 8 7 9 9 9 9 10 10 12 11 12 12 13 12 13 12 12 12 12 11 11 11 11 12 12 13 12 11 13 13
11 7 10 6 6 3 7 3 10 8 7 2 3 1 4 2 0 3 6 6 9 8 7 10 14 14 13 11 12 14 14 14 12 13 13 13 13 14 13 14 14 14 15 15 13 14 13 13 14 15 15 15 14 12 9 9 8 7 7 8 8 8 8 8 9 9 9 9 8 9 9 9 9 9 10 9 10 11 13 12 12 12 13 12 11 11 9 9 10 10 9 10 9 9 10 11 11
3 1 3 2 6 2 10 4 8 8 9 3 3 6 1 8 6 4 4 10 13 11 13 14 15 13 11 12 13 13 13 13 12 12 13 13 12 13 14 15 15 14 14 13 14 13 13 13 14 15 15 14 14 13 12 10 9 8 8 8 8 9 8 8 8 8 8 8 8 8 9 9 9 9 8 9 10 10 12 13 13 13 13 12 11 12 11 10 10 11 9 8 11 5 8 11 11
4 5 6 6 4 3 6 4 4 0 2 12 4 7 9 7 12 7 12 17 11 13 14 14 13 12 13 13 12 12 11 11 10 10 11 13 14 15 13 14 13 14 14 14 14 12 13 13 13 14 15 15 16 15 13 11 10 9 9 9 8 8 9 10 9 10 10 8 8 8 9 9 9 8 8 8 9 10 11 12 12 13 13 12 12 12 11 12 11 11 11 11 12 10 11 12 11
7 3 4 3 1 3 2 6 2 7 13 10 6 14 13 9 10 9 13 13 12 12 12 12 12 11 12 10 10 10 10 9 10 11 11 12 13 14 13 12 13 13 13 13 14 13 12 11 13 13 13 15 14 14 14 13 13 10 10 9 9 9 9 9 10 10 10 9 8 8 8 9 9 8 7 6 8 10 10 12 11 12 12 12 13 13 12 13 11 11 12 12 12 10 11 10 11
3 1 5 3 4 5 5 2 4 9 13 12 12 16 16 14 14 7 3 11 10 10 9 11 11 11 10 10 11 10 10 10 11 11 10 10 10 11 11 12 12 12 12 11 11 12 13 13 14 14 14 12 12 11 12 12 13 9 8 10 10 9 9 9 9 9 9 9 10 9 9 9 8 8 8 7 8 10 10 10 11 12 11 12 12 12 12 13 14 13 13 12 11 10 11 12 11
2 1 2 2 1 7 7 5 2 6 15 11 9 10 11 9 13 13 5 11 10 8 8 10 9 8 7 7 7 7 8 7 7 7 7 7 7 8 8 9 10 10 10 10 10 10 12 10 10 10 11 13 14 15 13 13 12 11 11 10 10 9 9 9 9 9 9 10 10 10 9 8 9 8 7 8 9 10 10 11 11 12 12 12 13 13 12 13 12 13 13 13 13 14 14 14 12
5 6 7 3 3 2 3 2 4 6 12 13 14 13 10 4 6 11 10 10 8 8 8 6 6 6 6 6 5 4 4 4 4 4 4 5 5 5 5 5 5 5 6 8 8 10 9 9 11 13 16 16 16 15 13 12 11 11 12 12 11 10 10 9 9 9 9 10 9 9 9 8 6 7 8 9 10 10 11 11 11 12 12 12 13 13 12 12 13 14 13 13 13 15 17 14 13
4 5 8 9 7 6 8 12 8 9 11 13 13 14 3 6 3 8 9 6 8 7 9 6 5 5 4 3 3 1 2 0 0 1 2 3 3 3 4 3 3 4 6 8 8 9 11 13 13 14 14 14 14 13 12 12 11 10 12 12 12 10 9 8 9 8 8 8 8 8 8 7 8 8 8 9 10 9 9 11 11 11 12 12 12 13 13 12 13 14 14 9 11 13 14 15 14
Wind_Direction
319 329 307 315 269 276 264 351 272 140 246 276 294 245 44 304 344 286 244 165 276 103 310 106 171 158 220 341 317 333 321 276 256 281 350 47 97 244 225 181 181 204 161 161 165 163 176 190 198 189 186 186 184 184 181 182 183 181 177 178 179 182 178 176 174 175 173 167 156 152 148 145 140 136 130 125 116 109 104 102 106 108 111 117 118 111 111 111 100 98 95 93 88 85 83 82 80
304 330 261 261 311 274 186 336 280 272 244 272 247 257 60 103 228 238 355 355 356 7 14 244 214 232 295 300 311 314 251 219 270 300 15 23 294 241 199 202 191 183 163 164 166 169 178 180 198 189 187 186 186 187 182 184 184 180 178 178 180 181 181 176 174 173 171 160 156 152 148 145 137 136 135 140 130 130 122 116 98 112 116 118 113 113 106 109 104 100 100 99 95 89 87 84 83
343 306 176 223 190 325 104 222 269 300 297 291 30 262 98 234 262 271 312 7 2 45 227 235 276 257 241 247 267 240 312 109 295 256 281 65 259 159 168 187 197 198 170 165 170 174 179 179 190 192 187 185 187 189 184 185 182 180 179 177 180 181 179 175 172 170 164 161 157 151 146 143 139 143 144 141 139 137 139 117 116 115 129 121 113 112 103 101 106 103 101 99 96 93 91 90 88
255 4 287 168 205 236 241 209 260 283 283 326 297 111 209 301 350 9 73 353 336 237 205 207 203 140 235 229 242 33 263 266 209 206 229 180 313 56 163 171 179 197 173 169 174 177 182 167 184 191 186 182 185 186 180 184 180 177 179 180 176 177 174 174 169 163 161 158 155 153 148 145 146 143 156 160 164 169 165 134 137 136 152 180 145 130 110 104 103 105 103 100 98 98 95 94 90
223 51 312 253 273 194 271 309 299 249 269 8 312 9 210 258 308 313 293 350 283 227 212 180 250 146 262 295 351 262 21 199 210 197 302 23 54 50 157 161 175 187 179 175 175 179 186 159 182 193 185 181 182 179 177 179 177 175 175 175 171 170 168 167 167 161 158 160 158 154 156 159 158 160 163 172 167 178 182 197 168 175 177 131 137 145 128 113 106 104 103 102 103 100 96 92 90
186 250 47 273 274 28 206 222 212 228 276 339 289 314 338 304 299 312 300 293 306 214 220 209 277 49 206 209 215 248 67 289 80 203 240 80 20 142 163 155 176 185 177 177 179 182 187 157 190 195 190 181 179 176 175 173 174 173 170 170 168 166 165 164 166 171 171 167 169 167 167 176 179 187 192 201 190 195 202 182 175 162 145 153 144 122 119 111 108 107 107 106 103 101 96 90 87
203 183 92 105 121 233 277 268 273 281 290 208 270 292 313 333 308 314 304 315 123 182 189 218 38 259 263 186 223 239 5 66 234 87 251 31 347 182 158 165 175 182 177 180 181 185 190 165 198 194 191 178 178 172 172 172 171 168 173 167 174 166 171 173 173 181 178 179 180 185 190 196 201 197 189 190 182 187 185 172 164 156 162 166 151 125 120 115 111 109 107 105 101 97 94 90 87
75 263 50 250 147 253 238 272 275 259 282 224 299 279 288 313 333 295 296 317 109 228 170 243 247 291 290 127 284 97 246 220 256 83 7 321 125 173 169 168 177 181 178 180 182 190 159 171 194 194 188 179 171 170 172 172 170 168 171 175 174 175 180 180 179 196 189 188 199 208 207 209 190 158 170 185 189 188 187 174 162 165 169 174 147 133 125 119 114 110 106 102 99 96 93 90 87
32 277 112 234 216 159 258 255 287 182 277 235 260 247 272 285 294 287 281 250 292 250 222 213 205 245 105 196 227 84 203 146 191 261 270 235 190 169 175 180 182 177 179 177 185 192 186 182 197 193 185 178 171 172 175 175 175 170 177 185 182 190 191 197 197 197 202 205 213 216 212 209 199 181 211 180 194 192 193 185 181 177 173 169 142 138 134 128 124 119 114 110 105 100 96 94 91
111 303 189 252 344 253 267 258 251 276 243 269 281 283 280 277 282 242 277 281 264 281 243 42 200 234 341 287 283 222 188 95 117 227 212 213 196 179 182 186 187 177 178 181 189 189 182 172 202 198 187 182 176 177 179 181 178 184 188 190 197 203 202 206 204 209 216 211 215 203 208 195 211 212 177 190 189 196 192 187 183 179 175 156 143 142 138 132 127 124 119 117 112 107 103 100 97
188 78 3 222 222 269 260 299 261 245 246 265 273 259 267 274 246 260 236 274 265 271 99 175 203 235 259 261 260 81 87 131 185 222 181 184 190 186 187 186 188 181 179 187 192 187 178 185 197 210 197 200 187 184 188 183 190 187 189 195 197 203 213 210 215 212 228 222 213 225 219 215 197 190 191 195 187 191 188 182 179 173 166 154 148 143 139 136 133 131 126 122 117 115 111 105 101
200 199 177 256 262 284 314 291 295 294 295 272 273 131 119 181 174 239 206 261 183 231 241 169 316 175 216 254 258 135 126 210 203 135 150 163 188 190 192 182 185 183 185 189 191 190 188 187 191 202 211 203 193 188 194 184 189 193 192 195 205 206 211 209 211 208 204 211 214 214 214 208 198 190 197 191 184 183 181 177 171 168 164 157 152 146 143 140 136 131 126 122 120 116 112 108 102
288 146 221 249 304 251 17 279 276 308 289 240 220 120 101 180 214 282 288 276 261 287 248 202 72 240 276 236 1 285 236 144 158 128 159 184 180 180 192 186 182 191 187 192 194 197 195 192 192 197 198 197 205 199 192 182 189 192 190 191 210 214 209 212 204 200 202 200 209 208 202 196 186 193 194 188 181 183 181 175 172 168 164 156 152 148 144 140 135 132 127 124 119 114 109 105 99
252 220 225 281 70 263 256 290 283 287 305 72 203 119 204 233 230 284 249 281 236 248 35 249 185 243 263 294 259 246 162 85 90 122 155 172 171 178 183 184 186 189 194 196 198 197 199 201 197 197 197 198 199 192 198 193 191 201 194 197 206 200 195 200 201 192 193 200 199 194 182 170 177 189 192 185 182 182 179 175 172 168 163 158 153 148 143 138 136 132 127 122 117 112 106 102 96
248 158 218 287 187 223 190 262 9 305 289 12 100 185 189 234 245 209 246 297 301 48 96 203 207 175 272 197 288 213 87 70 91 108 128 140 157 182 185 191 190 195 197 198 200 203 202 201 203 199 198 199 200 197 199 190 190 189 190 194 192 192 193 199 199 183 182 195 185 164 151 155 171 183 183 181 183 177 174 167 170 167 161 156 153 147 143 139 137 134 129 122 117 112 105 99 93
102 179 269 259 254 252 196 243 163 256 267 250 88 297 262 223 185 213 226 282 295 147 210 217 200 230 286 231 283 77 75 94 109 131 131 135 152 169 194 207 206 204 206 204 207 209 205 203 204 202 202 203 200 200 206 200 180 182 181 181 184 194 197 192 184 174 177 174 153 149 146 153 167 182 173 179 183 171 160 175 168 166 161 157 154 150 146 142 139 135 131 124 119 113 104 98 94
214 275 226 211 272 187 189 238 150 277 350 236 138 188 244 256 133 268 41 277 262 264 183 214 199 236 242 246 74 87 97 105 135 139 145 156 169 183 192 200 208 209 211 211 211 207 207 207 205 205 204 203 202 201 200 195 177 174 179 181 182 190 188 183 176 164 154 152 150 146 144 183 191 189 174 186 165 172 164 167 164 166 162 159 153 151 149 146 140 134 129 124 118 111 101 93 87
206 223 241 248 260 244 197 235 206 37 282 289 200 204 235 270 193 167 211 225 239 268 265 241 230 244 241 239 83 82 133 154 160 170 180 181 186 185 198 202 198 210 205 210 213 211 206 208 207 208 207 202 199 199 192 184 178 184 199 192 190 184 183 169 168 179 171 173 153 149 184 193 191 188 185 184 179 169 163 162 164 162 161 156 154 153 151 147 142 137 133 127 121 116 116 116 97
224 208 229 270 235 269 170 228 243 237 273 289 283 149 246 273 350 311 283 274 237 269 264 254 236 237 240 233 181 183 159 188 184 205 198 195 196 201 200 193 203 207 208 209 209 207 207 206 207 207 209 199 199 198 188 190 191 193 200 199 196 192 189 182 191 185 185 195 182 188 195 192 191 183 186 176 185 169 163 163 155 155 158 153 152 150 149 145 142 139 135 130 125 125 130 117 116
215 246 255 250 237 241 207 219 236 226 277 284 283 267 222 264 291 73 256 280 275 262 274 277 255 254 238 235 201 203 194 210 209 217 220 215 210 210 203 200 203 210 211 203 203 200 203 206 204 207 204 198 195 200 195 196 196 196 201 203 205 200 201 191 201 192 190 197 193 194 193 187 183 186 110 123 130 165 147 153 146 141 144 144 143 145 142 141 134 127 124 124 130 152 129 125 123
128 215 240 267 257 260 227 222 240 251 282 274 279 289 280 260 241 216 255 279 265 259 252 256 272 283 295 266 199 180 210 219 221 225 232 229 224 222 221 211 205 206 210 204 201 200 200 203 200 202 198 197 198 201 196 198 196 199 205 202 201 201 205 201 200 184 185 194 191 190 191 172 178 183 169 171 181 177 170 170 163 166 166 160 161 156 155 146 147 143 139 156 150 140 139 132 137
143 233 250 262 124 254 255 217 215 239 348 269 273 286 286 55 238 221 229 246 267 272 284 266 270 286 283 283 277 170 212 223 226 226 229 229 223 223 224 229 224 216 186 201 205 205 201 201 201 200 201 204 203 204 200 198 193 195 198 203 199 203 203 202 198 184 180 180 183 191 175 170 181 182 178 181 186 182 176 176 177 176 172 165 176 163 159 161 157 154 155 157 150 143 135 131 129
249 235 237 249 250 265 313 236 130 194 232 233 266 289 323 263 277 254 218 229 255 263 274 279 281 282 282 286 264 239 222 228 227 226 226 228 230 231 228 223 218 211 203 213 208 208 200 198 199 197 202 205 209 207 201 199 200 202 200 198 202 205 204 198 191 188 186 181 184 179 179 183 186 187 182 185 187 182 181 178 177 175 172 170 179 171 160 160 163 156 157 150 141 134 125 119 110
245 270 136 263 239 249 262 263 115 217 249 259 275 313 280 276 283 280 222 231 248 266 270 273 277 276 273 274 260 254 243 228 231 230 225 226 225 226 222 223 221 219 212 215 210 203 195 196 195 196 200 200 205 208 209 208 206 203 200 205 208 205 203 196 204 191 181 179 182 184 188 186 187 189 187 186 187 187 187 181 177 175 176 174 176 171 163 166 163 157 150 141 141 137 132 128 122
234 252 258 269 274 260 271 278 251 255 250 257 286 278 265 267 274 308 271 233 247 258 266 269 269 271 265 258 262 258 256 247 243 244 232 235 239 243 234 231 225 215 224 217 205 202 201 193 193 197 200 202 204 202 209 209 207 210 199 211 210 203 206 207 205 185 181 184 184 183 186 188 190 190 187 186 184 189 184 178 177 179 177 173 174 173 172 167 163 157 154 155 153 148 144 139 132
206 245 278 278 267 272 271 276 244 237 259 188 225 253 265 270 321 273 267 266 245 252 263 267 270 266 263 258 257 254 254 254 248 251 242 234 230 236 240 227 222 225 226 217 205 208 202 193 194 195 195 198 199 199 207 208 208 208 203 210 208 197 201 201 194 185 189 184 185 187 187 193 192 190 186 185 185 186 181 178 180 181 180 174 177 177 177 172 165 160 159 157 155 153 153 143 147
65 313 292 285 284 290 277 259 276 229 252 178 218 258 269 254 162 275 280 249 231 238 256 267 272 268 265 254 255 253 252 253 250 252 253 237 228 223 239 223 219 228 226 222 214 209 199 191 196 198 199 196 195 200 202 205 203 205 203 210 206 207 196 192 188 192 191 190 190 185 189 195 193 191 186 184 183 183 181 180 187 180 182 179 181 177 171 173 164 163 163 162 162 160 152 150 160
346 341 296 276 275 268 252 245 256 222 270 208 222 252 267 255 171 247 268 212 142 258 271 276 266 261 266 259 254 260 253 253 252 236 245 247 226 219 227 213 219 224 217 222 218 206 194 196 195 198 197 195 196 200 201 203 202 203 204 202 205 204 192 192 192 192 191 191 187 182 191 194 194 192 187 182 184 181 183 184 184 182 185 177 182 173 167 165 160 145 143 148 150 152 144 152 159
298 305 292 288 287 286 271 245 265 174 236 146 188 227 258 237 227 246 245 265 280 269 268 270 272 270 266 266 261 259 254 257 242 233 239 238 235 218 229 216 219 218 222 224 216 203 201 196 198 199 198 197 199 200 200 202 202 200 203 204 202 198 192 190 193 193 192 190 186 185 192 192 194 194 189 183 181 181 181 180 183 183 182 175 174 163 155 154 144 144 143 148 148 146 148 147 150
247 209 275 293 286 277 288 200 69 171 212 145 147 278 203 230 239 249 259 247 284 267 267 265 266 269 269 264 262 261 261 255 247 239 242 239 236 234 239 234 220 226 227 216 211 213 202 196 195 196 199 201 200 199 200 200 201 198 201 202 200 193 191 191 195 194 191 190 188 188 189 192 194 197 188 182 184 183 182 185 183 180 179 168 162 158 167 168 162 159 156 164 161 167 164 161 167
279 61 184 267 285 266 254 159 117 250 142 172 201 263 271 263 272 281 290 102 267 276 278 277 273 272 271 267 253 257 261 245 251 254 246 245 249 254 253 258 241 233 231 221 209 216 203 197 187 196 195 201 198 203 202 202 199 199 197 202 201 191 190 193 194 193 191 192 188 190 190 191 193 195 187 180 185 185 183 186 185 182 169 166 167 173 173 169 166 166 165 167 164 175 171 167 178
265 279 250 201 229 261 278 261 191 258 137 217 186 259 262 262 274 296 5 60 200 272 278 280 278 274 272 272 272 271 267 265 254 256 259 269 271 254 248 252 242 240 229 226 223 212 214 206 192 201 192 199 199 202 204 203 202 201 198 198 196 188 188 194 194 193 191 190 190 189 190 191 191 192 185 183 184 188 186 187 185 176 163 168 173 170 174 170 167 166 171 171 166 177 170 170 177
208 232 268 268 256 277 303 265 247 236 115 205 206 270 297 267 261 274 289 230 249 280 283 280 280 279 274 267 266 263 268 274 273 268 293 275 247 242 248 247 237 231 228 224 220 207 212 208 200 204 201 200 203 201 202 202 201 199 199 199 196 188 194 195 195 192 190 193 191 192 188 188 188 190 188 186 188 186 188 186 183 171 167 173 172 171 177 173 165 166 168 177 182 173 175 167 168
247 210 262 248 269 294 276 307 279 136 204 233 212 249 255 272 282 285 288 287 286 282 276 276 275 274 274 275 265 267 270 275 282 306 313 319 303 267 248 241 239 231 227 222 220 212 211 206 201 202 206 203 203 202 202 202 206 206 204 201 195 197 200 199 197 192 195 195 192 194 182 183 190 191 188 186 192 187 187 185 177 167 171 175 171 172 179 168 169 173 167 175 179 173 180 174 170
279 260 263 268 229 225 268 291 259 295 184 257 255 247 262 269 274 273 272 277 278 276 272 272 275 278 283 278 272 273 274 280 321 343 342 317 291 269 255 248 242 236 232 226 222 221 215 208 200 199 203 200 199 201 200 200 202 205 207 203 200 206 205 206 202 200 201 196 198 191 180 186 190 189 186 184 191 186 187 187 175 171 175 175 170 172 170 167 170 178 171 164 168 188 185 178 161
281 293 284 285 284 275 263 257 269 274 290 292 278 277 283 285 284 281 278 268 266 265 272 273 278 286 284 278 274 270 285 314 356 358 312 285 281 289 284 272 253 247 247 240 229 221 218 213 207 205 203 198 195 196 190 194 197 200 199 198 208 211 208 206 207 209 202 202 198 190 186 188 189 187 185 186 191 187 187 186 177 170 179 176 174 176 175 179 176 169 171 164 166 167 202 144 135
325 266 257 267 272 274 266 269 274 288 302 264 266 275 286 288 285 283 280 273 267 262 265 287 288 282 276 269 270 312 347 348 16 314 280 289 298 303 307 302 295 284 264 250 236 227 218 216 207 212 200 195 194 193 196 192 195 199 202 207 212 204 204 204 207 210 208 207 198 194 190 190 190 185 186 186 192 189 190 181 173 174 180 181 182 186 178 172 171 170 162 164 167 169 178 168 159
265 269 270 271 256 273 261 278 288 302 266 273 261 274 278 282 280 273 266 266 263 274 293 277 272 273 270 279 10 46 25 1 334 303 314 317 337 340 336 328 323 306 284 245 241 237 230 225 221 218 196 198 202 200 196 197 203 201 198 206 207 202 199 199 208 206 208 204 199 196 195 192 191 189 187 189 191 187 185 179 176 175 180 186 188 178 166 158 160 166 160 160 181 181 178 177 170
250 250 265 274 265 267 273 258 279 336 272 283 288 291 288 281 270 267 267 268 272 270 256 262 264 260 275 44 19 18 9 358 310 328 337 345 343 351 355 354 347 331 317 304 278 256 237 224 225 216 205 201 207 205 200 203 202 201 201 206 203 209 213 220 222 218 208 205 201 197 198 196 196 194 189 189 189 189 186 178 179 177 183 181 177 175 171 170 175 173 174 173 167 187 184 175 186
248 249 241 257 277 284 298 181 114 161 272 297 309 296 287 258 258 264 267 260 262 257 250 243 240 268 340 360 6 7 19 341 332 358 351 342 347 356 5 8 1 345 341 327 307 273 255 237 231 219 216 209 208 206 209 210 205 200 196 190 179 202 210 203 209 208 206 207 207 201 202 201 197 197 192 188 188 188 186 183 179 181 186 185 184 177 177 179 173 176 178 181 169 168 189 188 206
227 231 256 272 264 255 248 293 335 310 282 268 307 276 274 269 172 143 167 299 246 255 248 246 268 325 331 22 64 61 25 343 359 9 3 360 2 7 12 11 3 4 359 353 339 314 271 257 238 226 225 216 213 208 203 200 187 192 196 208 191 212 236 217 212 226 219 213 215 210 211 201 200 198 193 193 193 191 190 187 186 187 186 188 188 183 179 182 177 178 176 176 182 183 182 183 198
259 211 226 244 262 280 281 290 335 302 284 66 348 329 300 161 141 159 319 247 260 253 252 247 86 38 62 53 63 99 178 26 25 15 10 22 24 23 24 17 15 11 6 353 341 328 320 300 271 242 231 224 216 215 204 202 210 208 204 205 214 220 225 218 220 220 214 209 213 216 206 204 201 201 200 196 197 195 193 191 189 186 188 187 193 191 180 171 177 177 181 183 187 196 180 172 185
266 266 209 248 258 269 279 290 331 287 291 66 19 317 297 181 246 252 261 256 262 258 270 327 353 32 41 55 50 50 44 41 27 9 24 37 32 30 25 21 15 12 3 348 349 347 341 326 310 285 258 248 221 209 191 195 209 212 212 211 213 216 221 225 225 223 216 211 206 208 205 196 200 203 204 200 200 199 197 195 193 192 191 191 191 189 185 184 180 182 177 189 192 187 184 186 186
256 66 346 222 251 249 274 288 240 271 322 261 194 212 283 299 201 205 232 236 253 269 308 343 360 55 92 93 53 62 54 41 13 9 30 41 39 33 24 18 19 13 358 0 4 0 355 349 338 320 293 266 241 205 201 203 209 211 214 216 217 223 223 230 213 207 204 202 198 201 198 200 200 205 206 203 202 200 200 199 196 193 193 194 190 197 193 184 177 181 184 190 189 191 192 192 189
319 25 47 66 303 293 208 242 279 289 330 304 161 167 272 265 114 293 200 242 251 263 306 50 56 48 50 64 65 62 54 47 36 38 39 40 40 33 23 18 14 13 15 12 5 0 358 356 352 344 324 302 272 210 216 213 217 220 216 218 225 230 233 230 232 198 208 197 201 206 206 204 200 203 208 206 204 204 201 201 195 195 195 195 191 199 198 187 184 178 180 186 193 195 200 204 195
123 127 92 93 105 78 183 269 290 289 305 275 152 183 270 283 255 161 65 270 271 64 39 69 85 82 43 46 57 57 55 40 35 36 40 43 40 35 26 19 18 15 13 12 12 10 9 5 5 0 355 334 317 249 223 224 222 225 226 224 227 232 229 232 228 218 206 203 204 206 203 202 200 200 207 210 206 207 207 203 200 199 198 195 191 200 196 187 188 186 185 187 189 194 199 201 207
112 165 142 150 160 186 146 85 288 294 253 265 162 188 214 287 310 154 169 187 356 27 134 88 105 86 67 60 54 50 48 39 32 34 32 36 35 33 22 23 17 17 18 18 16 14 10 12 5 10 8 349 337 298 253 239 230 229 236 234 231 231 229 232 230 226 218 205 208 206 204 206 203 205 203 208 209 207 209 207 206 203 202 199 194 199 199 194 193 189 187 188 192 196 199 200 210
217 238 287 299 235 148 207 187 164 248 266 303 150 183 199 235 212 251 39 16 235 290 311 311 35 70 66 60 58 52 49 42 34 32 31 29 28 25 18 15 15 17 21 21 17 13 13 14 11 13 16 6 351 332 292 263 250 242 242 244 241 239 236 237 237 236 221 213 210 212 206 206 209 208 206 210 210 207 207 207 208 206 207 206 204 204 204 197 193 190 189 193 198 201 203 199 207
207 198 251 264 282 334 253 152 227 205 253 78 43 105 243 237 244 326 313 311 301 142 307 343 23 79 72 60 60 55 52 46 37 33 31 28 24 18 17 14 13 18 20 18 17 15 13 13 15 17 15 7 4 345 324 294 271 261 253 250 252 250 245 244 246 241 233 220 213 213 205 206 205 205 206 211 210 203 203 204 203 207 210 210 208 204 205 198 193 194 196 194 197 195 201 199 202
182 202 193 201 266 238 261 280 288 279 279 92 130 181 245 271 287 246 256 279 17 49 43 21 27 59 73 64 52 50 46 42 37 33 29 25 19 15 15 16 19 20 20 17 13 15 14 15 16 18 16 13 6 0 344 324 301 285 276 268 262 255 252 247 247 247 240 234 222 218 214 212 210 208 207 211 209 203 203 208 209 210 212 212 208 206 204 201 199 200 199 199 201 203 201 202 208
194 197 179 202 212 233 276 239 261 269 295 62 245 158 231 322 92 23 68 47 64 56 55 60 65 68 70 60 52 46 40 36 33 34 31 25 19 15 14 14 19 21 19 16 14 14 13 15 15 17 17 15 14 8 360 347 328 310 295 281 272 266 260 256 252 249 246 237 227 223 223 220 219 214 211 209 204 200 203 206 208 208 209 211 207 205 205 205 205 207 210 211 211 207 205 204 212
143 61 1 293 233 184 243 250 262 284 289 240 174 225 360 243 27 263 110 83 78 65 60 60 60 60 60 51 42 39 37 33 28 27 26 26 23 20 19 16 13 13 14 16 14 11 14 14 14 18 18 15 14 12 10 360 346 331 314 296 285 278 271 268 264 257 251 242 237 230 231 227 224 220 212 202 199 198 202 206 207 208 207 207 206 205 205 206 204 208 214 213 215 201 209 206 214
131 148 203 217 19 214 273 282 247 294 260 252 249 256 252 277 271 262 106 92 79 66 56 52 47 47 50 47 39 36 35 33 28 25 22 19 19 21 20 18 14 11 9 8 9 12 12 12 13 16 18 18 17 15 11 8 0 350 336 318 302 288 279 272 270 268 262 254 244 238 237 238 231 223 220 202 199 202 205 207 212 213 210 207 205 204 203 206 204 206 213 211 214 207 210 211 211
111 211 225 61 144 38 223 271 240 234 251 256 215 259 274 283 294 105 103 92 71 63 59 55 51 43 46 42 42 36 30 29 29 29 28 24 21 18 16 15 14 12 10 7 7 5 10 14 12 11 13 17 16 13 11 12 5 1 352 342 326 308 294 284 277 272 268 263 251 244 240 237 231 224 217 193 201 203 207 207 212 213 213 209 207 203 200 201 201 210 214 217 216 207 206 210 209
269 269 345 246 233 242 190 242 238 248 250 264 238 246 253 250 260 244 184 93 87 71 59 59 47 43 42 37 34 32 28 25 24 22 21 21 19 17 15 11 11 11 10 10 6 8 10 11 10 10 11 18 17 14 13 13 11 4 355 348 340 328 314 300 288 280 276 266 260 254 245 238 238 225 217 208 204 210 207 206 208 214 213 211 211 211 204 202 199 208 209 215 212 205 211 214 213
143 248 258 76 345 249 244 221 271 261 267 266 252 227 251 228 257 268 54 66 82 85 63 60 59 51 49 45 38 32 30 26 19 16 16 16 16 11 6 6 1 360 1 0 3 8 13 13 12 11 12 14 15 16 12 11 6 5 358 356 354 345 331 316 304 296 284 276 268 264 255 245 240 235 223 213 212 212 209 208 208 212 214 212 211 210 207 209 207 212 209 208 208 202 211 213 212
188 218 233 191 229 29 297 335 239 235 261 255 270 262 253 276 30 76 78 76 74 86 86 75 69 68 62 56 50 40 38 33 18 9 2 1 5 360 353 347 337 330 353 0 5 7 6 7 10 11 15 15 14 9 7 7 2 3 3 3 356 355 346 336 322 306 296 288 282 275 270 261 251 234 224 219 216 213 212 211 210 210 211 211 210 211 209 210 212 215 215 216 210 203 206 210 208
271 238 238 229 232 237 238 251 188 230 238 258 255 260 251 71 7 86 96 87 90 85 102 96 94 92 92 68 56 70 42 247 282 308 311 312 332 324 291 284 301 341 1 10 6 8 11 12 12 13 13 13 5 3 2 357 358 358 3 1 359 355 351 339 334 319 303 293 283 280 275 268 259 252 230 226 221 217 215 214 213 212 211 212 211 210 209 207 213 214 215 210 211 211 211 214 206